[[{"header":{"parameterUnit":"m.s-1","parameterCategory":1,"la1":30.2991,"la2":30.254,"lo1":-89.0895,"lo2":-89.0444,"dy":0.0017,"dx":0.0017,"nx":28,"ny":28,"refTime":"2025-11-09T09:00:00:Z","depth":0,"parameterNumber":2,"parameterNumberName":"U-component_of_WINDS"},"data":[0,0,0,0,0,0,0,0,0,0,0,0,0,0,0,0,0,0,0,0,0,0,0,0,0,0,0,0,0,0,0,0,0,0,0,0,0,0,0,0,0,0,0,0,0,0,0,0,0,0,0,0,0,0,0,0,0,0,2.2158,2.2159,0,2.2183,2.2183,2.2183,2.2176,2.2176,2.2175,2.2175,2.2199,2.22,2.2202,0,0,0,0,0,0,0,0,0,0,0,0,0,2.2107,2.2108,2.2158,2.2159,2.2159,2.2183,2.2183,2.2183,2.2176,2.2176,2.2175,2.2174,2.2199,2.22,2.2202,0,0,0,0,0,0,0,0,0,0,0,0,0,2.213,2.2108,2.2158,2.2158,2.2159,2.2183,2.2183,2.2183,2.2176,2.2176,2.2175,2.2174,2.2199,2.22,2.2202,2.2227,0,0,2.2207,2.2208,0,0,0,0,0,0,0,0,2.2129,2.2132,2.2158,2.2158,2.2159,2.2176,2.2174,2.2198,2.2176,2.217,2.2175,2.2174,2.2192,2.2194,2.22,2.2228,2.223,2.2207,2.2208,2.2209,2.2209,0,0,0,0,0,0,0,2.2127,2.2131,2.2168,2.2158,2.2159,2.2157,2.216,2.2178,2.2185,2.217,2.217,2.2173,2.2192,2.2199,2.2201,2.223,2.2207,2.2209,2.221,2.221,2.2281,2.2282,0,0,0,0,0,0,2.2125,2.213,2.2167,2.2169,2.2142,2.2159,2.2162,2.2171,2.2184,2.2186,2.2173,2.2172,2.2196,2.2199,2.2202,2.2233,2.2209,2.221,2.2211,2.2281,2.2282,2.2283,0,0,0,0,0,0,2.2124,2.2129,2.2166,2.2149,2.2154,2.2161,2.2171,2.2172,2.2178,2.2187,2.2188,2.2179,2.2196,2.2199,2.2221,2.2234,2.2211,2.2213,2.228,2.2281,2.2282,2.2295,0,0,0,0,0,0,2.2123,2.2128,2.2138,2.2149,2.2155,2.2185,2.2172,2.2173,2.2181,2.218,2.2192,2.2194,2.2195,2.2219,2.2223,2.2236,2.2214,2.2278,2.228,2.2282,2.2294,2.2297,2.23,0,0,0,0,0,2.2121,2.214,2.2138,2.2143,2.2167,2.2186,2.2189,2.219,2.2182,2.2192,2.2198,2.2193,2.2232,2.2221,2.2226,2.2239,2.2278,2.228,2.2282,2.2292,2.2296,2.23,0,0,0,0,0,0,2.2129,2.2142,2.214,2.2163,2.2174,2.2184,2.2197,2.2194,2.2207,2.2205,2.2207,2.221,2.2232,2.2238,2.2226,2.2265,2.2254,2.2257,2.226,2.2264,2.2267,2.2265,2.2215,0,0,0,0,0,2.2134,2.2149,2.2159,2.2178,2.2184,2.2189,2.2198,2.2198,2.2209,2.2213,2.2221,2.2231,2.2246,2.2255,2.2269,2.2295,2.2298,2.2307,2.231,2.2312,2.2314,2.2329,2.2333,2.2289,2.2289,2.2289,0,0,2.2144,2.2152,2.2161,2.218,2.2188,2.2204,2.2193,2.2209,2.2221,2.2216,2.2237,2.2243,2.2255,2.2279,2.229,2.2285,2.2327,2.2314,2.2316,2.2317,2.2331,2.2336,2.2339,2.229,2.229,2.229,0,0,2.2169,2.2177,2.2194,2.2203,2.2216,2.222,2.2224,2.2236,2.224,2.2261,2.2258,2.2272,2.2297,2.2306,2.2314,2.2345,2.2341,2.2349,2.2364,2.2378,2.2382,2.2385,2.2396,2.24,2.2352,2.2352,2.2352,0,2.2179,2.2201,2.2204,2.2221,2.2229,2.2227,2.2245,2.2253,2.227,2.2276,2.227,2.2302,2.231,2.2337,2.2344,2.2351,2.2356,2.2347,2.2381,2.2384,2.2387,2.2398,2.2402,2.2353,2.2353,2.2352,2.2352,0,2.2214,2.2229,2.2242,2.2259,2.2269,2.2287,2.2292,2.2303,2.2303,2.2308,2.233,2.234,2.2356,2.2363,2.2363,2.239,2.2386,2.2381,2.2369,2.2392,2.2402,2.2406,2.2354,2.2354,2.2353,2.2353,0,0,2.2243,2.2262,2.2266,2.2274,2.2289,2.2301,2.2319,2.2336,2.2345,2.2357,2.2372,2.2394,2.239,2.2399,2.24,2.2413,2.2437,2.2406,2.2406,2.2411,2.2468,2.2472,2.2476,2.2436,2.2436,2.2437,2.2467,0,2.2269,2.23,2.2304,2.2332,2.2347,2.2345,2.2361,2.2372,2.2378,2.2392,2.2398,2.2414,2.2406,2.2412,2.2425,2.2431,2.2448,2.243,2.245,2.245,2.2446,2.2481,2.2485,2.2512,2.2471,2.2471,2.2472,0,2.2303,2.2317,2.2347,2.236,2.2367,2.2381,2.2396,2.241,2.2423,2.2426,2.2437,2.2437,2.2457,2.2445,2.2472,2.2459,2.2468,2.2473,2.2474,2.2475,2.2462,2.2483,2.2521,2.2525,2.2478,2.2478,2.2477,0,2.2322,2.2347,2.2369,2.2376,2.2392,2.2402,2.241,2.2422,2.2432,2.2446,2.2453,2.2469,2.2477,2.249,2.2495,2.2486,2.2522,2.2511,2.2525,2.2525,2.2532,2.2531,2.2571,2.2539,2.2539,2.2539,2.2539,0,2.235,2.2368,2.2377,2.239,2.2411,2.2416,2.2436,2.2443,2.2454,2.2469,2.2469,2.2483,2.2489,2.2504,2.2508,2.253,2.2534,2.2538,2.2538,2.2537,2.2537,2.2542,2.254,2.254,2.2539,2.2539,2.2539,0,2.2373,2.238,2.2403,2.2418,2.2422,2.2436,2.2449,2.2462,2.2468,2.2487,2.2491,2.2501,2.2519,2.2526,2.2547,2.255,2.2576,2.2575,2.2571,2.2571,2.2585,2.2584,2.263,2.2636,2.26,2.26,2.26,0,2.2391,2.2405,2.2421,2.2431,2.2439,2.2455,2.2465,2.2471,2.2482,2.2499,2.251,2.2528,2.2542,2.2571,2.258,2.2597,2.2597,2.2612,2.2599,2.2598,2.2597,2.2596,2.2597,2.2614,2.2614,2.2615,2.2615,0,2.2421,2.2424,2.2439,2.2455,2.2468,2.2481,2.2494,2.2503,2.251,2.2523,2.2541,2.2553,2.2576,2.2594,2.2611,2.2619,2.2619,2.2619,2.2623,2.2622,2.2619,2.2621,2.2577,2.2618,2.2617,2.2617,2.2617,2.2617,2.2441,2.2454,2.2468,2.2485,2.2495,2.2508,2.2521,2.2529,2.2545,2.2564,2.2566,2.2586,2.2601,2.2624,2.2634,2.265,2.2646,2.2652,2.2653,2.2654,2.2655,2.2617,2.2653,2.2653,2.2653,2.2653,2.2653,0,2.2471,2.248,2.2496,2.2514,2.2528,2.2527,2.2542,2.2553,2.2571,2.2584,2.2599,2.2621,2.2639,2.265,2.2668,2.2679,2.2679,2.2684,2.2682,2.2684,2.2658,2.2652,2.2683,2.2683,2.2683,2.2683,2.2683,2.2683,2.2488,2.251,2.2515,2.2542,2.2551,2.2571,2.2579,2.2591,2.2602,2.2627,2.2642,2.2649,2.2662,2.2681,2.2698,2.2701,2.2707,2.2712,2.2715,2.2689,2.2686,2.2683,2.2678,2.2714,2.2714,2.274,2.274,2.274]},{"header":{"parameterUnit":"m.s-1","parameterCategory":1,"la1":30.2991,"la2":30.254,"lo1":-89.0895,"lo2":-89.0444,"dy":0.0017,"dx":0.0017,"nx":28,"ny":28,"refTime":"2025-11-09T09:00:00:Z","depth":0,"parameterNumber":3,"parameterNumberName":"V-component_of_WINDS"},"data":[0,0,0,0,0,0,0,0,0,0,0,0,0,0,0,0,0,0,0,0,0,0,0,0,0,0,0,0,0,0,0,0,0,0,0,0,0,0,0,0,0,0,0,0,0,0,0,0,0,0,0,0,0,0,0,0,0,0,-7.0055,-7.0056,0,-7.0108,-7.0109,-7.0109,-7.006,-7.0058,-7.0056,-7.0054,-7.0102,-7.0105,-7.0108,0,0,0,0,0,0,0,0,0,0,0,0,0,-6.9908,-6.9911,-7.0055,-7.0056,-7.0057,-7.0108,-7.0109,-7.011,-7.006,-7.0058,-7.0055,-7.0053,-7.0101,-7.0105,-7.0109,0,0,0,0,0,0,0,0,0,0,0,0,0,-6.9968,-6.9912,-7.0055,-7.0038,-7.0037,-7.0108,-7.0109,-7.011,-7.006,-7.0058,-7.0055,-7.0052,-7.01,-7.0104,-7.0109,-7.0197,0,0,-7.0123,-7.0125,0,0,0,0,0,0,0,0,-6.9964,-6.9973,-7.004,-7.004,-7.0039,-7.0074,-7.0075,-7.0139,-7.0061,-7.0052,-7.0054,-7.005,-7.0095,-7.01,-7.0116,-7.0199,-7.0202,-7.0124,-7.0127,-7.0129,-7.013,0,0,0,0,0,0,0,-6.996,-6.997,-7.0076,-7.0041,-7.004,-7.0027,-7.0032,-7.0087,-7.0089,-7.0052,-7.0049,-7.0056,-7.0094,-7.0112,-7.0117,-7.0202,-7.0124,-7.0128,-7.0131,-7.0133,-7.0364,-7.0367,0,0,0,0,0,0,-6.9959,-6.9967,-7.0074,-7.0078,-6.9994,-7.0032,-7.0038,-7.0066,-7.0088,-7.0089,-7.0058,-7.0053,-7.0105,-7.0111,-7.0118,-7.0225,-7.0129,-7.0133,-7.0136,-7.036,-7.0364,-7.0368,0,0,0,0,0,0,-6.9956,-6.9969,-7.0072,-7.0022,-7.0034,-7.0038,-7.007,-7.0068,-7.0086,-7.0093,-7.0093,-7.0076,-7.0103,-7.0112,-7.0179,-7.0226,-7.0135,-7.0139,-7.0356,-7.0362,-7.0366,-7.0438,0,0,0,0,0,0,-6.9952,-6.9968,-7.0002,-7.0023,-7.0037,-7.0133,-7.0072,-7.0072,-7.0095,-7.0089,-7.011,-7.011,-7.0101,-7.0172,-7.0184,-7.0231,-7.0143,-7.0352,-7.0359,-7.0365,-7.0431,-7.0445,-7.0456,0,0,0,0,0,-6.9947,-7.0018,-7.0004,-7.0017,-7.008,-7.0136,-7.0144,-7.0134,-7.0099,-7.0133,-7.0138,-7.011,-7.0219,-7.018,-7.0192,-7.0241,-7.0349,-7.0357,-7.0364,-7.0426,-7.0442,-7.0456,0,0,0,0,0,0,-6.9999,-7.002,-7.0005,-7.0085,-7.011,-7.0128,-7.017,-7.0151,-7.0183,-7.0176,-7.016,-7.0166,-7.0237,-7.0246,-7.0201,-7.0329,-7.0278,-7.0289,-7.0321,-7.0336,-7.0349,-7.0345,-7.0147,0,0,0,0,0,-7.0021,-7.0066,-7.0081,-7.0151,-7.0165,-7.0166,-7.0189,-7.018,-7.0204,-7.0213,-7.0222,-7.0245,-7.0285,-7.0311,-7.0348,-7.0433,-7.0437,-7.0472,-7.0485,-7.0495,-7.0504,-7.0552,-7.0568,-7.0392,-7.0392,-7.0392,0,0,-7.0064,-7.0082,-7.0111,-7.0162,-7.018,-7.0227,-7.0174,-7.0225,-7.0259,-7.022,-7.0285,-7.0294,-7.0318,-7.0395,-7.0429,-7.0404,-7.0554,-7.0505,-7.0513,-7.0516,-7.0561,-7.0578,-7.0592,-7.0398,-7.0397,-7.0396,0,0,-7.0168,-7.0186,-7.0247,-7.0267,-7.0296,-7.0297,-7.0312,-7.0334,-7.0339,-7.0405,-7.0377,-7.0417,-7.0485,-7.0504,-7.0523,-7.0639,-7.0615,-7.0651,-7.0716,-7.0762,-7.0776,-7.0788,-7.0831,-7.0846,-7.066,-7.066,-7.066,0,-7.0218,-7.029,-7.028,-7.0335,-7.0359,-7.0329,-7.0391,-7.041,-7.0448,-7.0465,-7.0437,-7.0524,-7.0538,-7.0621,-7.065,-7.0665,-7.0682,-7.0648,-7.0775,-7.0787,-7.0799,-7.0839,-7.0855,-7.0665,-7.0664,-7.0664,-7.0663,0,-7.0351,-7.0401,-7.0446,-7.0488,-7.0517,-7.0575,-7.0574,-7.0605,-7.0594,-7.0598,-7.0666,-7.0683,-7.0723,-7.0742,-7.073,-7.0824,-7.0808,-7.0778,-7.0726,-7.082,-7.0858,-7.0873,-7.0671,-7.0669,-7.0668,-7.0667,0,0,-7.0486,-7.0526,-7.0543,-7.0563,-7.0594,-7.0632,-7.0689,-7.0732,-7.0759,-7.0787,-7.0834,-7.0895,-7.0869,-7.089,-7.088,-7.0921,-7.1014,-7.0886,-7.0887,-7.0911,-7.112,-7.1143,-7.1161,-7.0999,-7.1002,-7.1004,-7.1119,0,-7.0593,-7.0694,-7.069,-7.0784,-7.0831,-7.0805,-7.0855,-7.0879,-7.0885,-7.0925,-7.093,-7.0974,-7.0935,-7.0949,-7.0988,-7.0995,-7.1056,-7.0986,-7.1043,-7.1045,-7.1038,-7.1181,-7.1204,-7.1311,-7.1133,-7.1136,-7.1138,0,-7.0729,-7.0767,-7.0867,-7.0895,-7.0914,-7.0959,-7.1,-7.1038,-7.1066,-7.1067,-7.1094,-7.1078,-7.1136,-7.1084,-7.1163,-7.1116,-7.1139,-7.1146,-7.115,-7.1155,-7.1097,-7.119,-7.1345,-7.1362,-7.116,-7.1159,-7.1157,0,-7.082,-7.0895,-7.0966,-7.0983,-7.1017,-7.1049,-7.1065,-7.109,-7.1117,-7.1151,-7.1169,-7.1209,-7.1231,-7.1262,-7.1258,-7.1221,-7.1339,-7.1287,-7.1342,-7.1342,-7.1367,-7.1366,-7.1529,-7.1382,-7.1382,-7.1381,-7.1381,0,-7.0939,-7.1002,-7.1007,-7.1051,-7.1121,-7.1115,-7.1184,-7.1195,-7.1218,-7.1263,-7.1242,-7.1284,-7.1276,-7.1318,-7.1315,-7.1382,-7.1392,-7.1394,-7.1393,-7.1397,-7.1396,-7.1411,-7.1404,-7.1386,-7.1385,-7.1384,-7.1383,0,-7.1052,-7.1058,-7.1134,-7.1161,-7.117,-7.122,-7.1243,-7.1284,-7.1289,-7.1346,-7.1359,-7.1367,-7.1416,-7.1416,-7.147,-7.1468,-7.1551,-7.154,-7.1543,-7.1541,-7.1596,-7.1592,-7.1775,-7.1799,-7.1636,-7.1637,-7.1639,0,-7.1128,-7.1176,-7.121,-7.124,-7.1259,-7.1306,-7.1335,-7.1332,-7.1362,-7.14,-7.1437,-7.1484,-7.1522,-7.1601,-7.1611,-7.1653,-7.1643,-7.1705,-7.1649,-7.1653,-7.1646,-7.1643,-7.1649,-7.1716,-7.1717,-7.1719,-7.172,0,-7.1262,-7.1264,-7.1307,-7.1353,-7.1389,-7.1424,-7.1456,-7.1482,-7.1482,-7.1517,-7.1569,-7.1599,-7.1657,-7.1704,-7.1746,-7.176,-7.1741,-7.1738,-7.1753,-7.1758,-7.1757,-7.176,-7.1573,-7.1733,-7.1732,-7.1731,-7.173,-7.173,-7.1359,-7.1402,-7.1434,-7.1484,-7.1509,-7.1541,-7.1582,-7.1595,-7.1638,-7.1687,-7.1682,-7.1739,-7.1768,-7.1822,-7.184,-7.1885,-7.1863,-7.1884,-7.189,-7.1896,-7.1903,-7.1751,-7.1892,-7.1892,-7.1891,-7.1891,-7.1891,0,-7.1493,-7.1514,-7.156,-7.1608,-7.1648,-7.163,-7.1665,-7.1699,-7.1751,-7.1781,-7.182,-7.188,-7.1927,-7.1942,-7.1987,-7.202,-7.2013,-7.2032,-7.203,-7.2034,-7.1919,-7.1902,-7.2038,-7.2038,-7.2038,-7.2038,-7.2038,-7.2038,-7.1568,-7.1641,-7.1647,-7.1732,-7.1751,-7.181,-7.1832,-7.1861,-7.1885,-7.1955,-7.1995,-7.2006,-7.203,-7.2077,-7.212,-7.2123,-7.2141,-7.2164,-7.2164,-7.2056,-7.2041,-7.2027,-7.2011,-7.2168,-7.2168,-7.2275,-7.2276,-7.2277]}]]